User: anonymous   Login
Location: Caltech
(34.1382°N, 118.1253°W)
Time: 16:34:54
(UTC-08:00)
Language:

ASTRO E2 - Orbit

View from above orbital plane
View from above orbital plane
View from above satellite
View from above satellite

Ground track
Ground track

The orbit data is extracted from the following two-line orbital elements,

1 28773U 05025A   17345.10817738  .00000736  00000-0  32711-4 0  9998
2 28773  31.3820 228.7768 0004779 321.6817  38.3490 15.16251631684221
Epoch (UTC): 11 December 2017 02:35:46
Eccentricity: 0.0004779
inclination: 31.3820°
perigee height: 514 km
apogee height: 520 km
right ascension of ascending node: 228.7768°
argument of perigee: 321.6817°
revolutions per day: 15.16251631
mean anomaly at epoch: 38.3490°
orbit number at epoch: 68422

The dashed part of the orbit path shows where the satellite is in the earth's shadow,  

DLR